Weather Roundup
Issued by NWS Chicago, IL

Home | Current Version | Previous Version | Graphics & Text | Print | Product List | Glossary On
Versions: 1 2 3 4 5 6 7 8 9 10 11 12 13 14 15 16 17 18 19 20 21 22 23 24 25 26 27 28 29 30 31 32 33 34 35 36 37 38 39 40 41 42 43 44 45 46 47 48 49 50
000
NZUS59 KLOT 170208
HRRLOT

CHICAGO AREA WEATHER ROUNDUP
NATIONAL WEATHER SERVICE CHICAGO/ROMEOVILLE IL
800 PM CST TUE JAN 16 2018

NOTE: "FAIR" INDICATES FEW OR NO CLOUDS BELOW 12,000 FEET WITH NO
SIGNIFICANT WEATHER AND/OR OBSTRUCTIONS TO VISIBILITY.

* THESE STATIONS ARE NOT UNDER NWS QUALITY CONTROL. THEY ALSO MAY NOT
  REPORT WEATHER SUCH AS PRECIPITATION OR FOG.

ILZ005-006-012>014-019>023-170300-
NORTHEAST ILLINOIS

CITY           SKY/WX    TMP DP  RH WIND       PRES   REMARKS
OHARE            N/A     17   9  70 NW14      30.52R WCI   3
MIDWAY           N/A     18  10  71 NW8       30.52R WCI   8
AURORA           N/A      8   4  83 W8        30.55R WCI  -4
LANSING*         N/A     17  11  79 W6        30.52S WCI   8
JOLIET*          N/A     13   8  81 W6        30.55S WCI   4
WAUKEGAN         N/A     16   8  71 W5        30.51R WCI   9
DUPAGE AIRPORT   N/A     12   7  80 W9        30.53R WCI   0
WHEELING         N/A     17  10  74 NW9       30.54R WCI   6
KANKAKEE*        N/A      8   4  84 W12       30.56S WCI  -7
MORRIS*          N/A      8   3  82 W10       30.56R WCI  -7
LEWIS AIRPORT*   N/A     11   7  84 NW7       30.54S WCI   0
NORTHERLY ISL    N/A     20  10  65 W12         N/A  WCI   8
$$

WIZ051-052-058>065-066-070>072-170300-
SOUTHEAST WISCONSIN

CITY           SKY/WX    TMP DP  RH WIND       PRES   REMARKS
MILWAUKEE        N/A     18  10  71 W5        30.51R WCI  11
KENOSHA*         N/A     11   5  77 W6        30.51R WCI   1
RACINE*          N/A     15   9  76 NW7       30.52S WCI   5
BURLINGTON       N/A      7   3  84 NW6       30.52S WCI  -4
WAUKESHA       CLEAR     10   7  85 W7        30.50F WCI   0
WEST BEND      MOCLDY     9   9 100 CALM      30.49S
$$

INZ001>003-010>013-019-020-170300-
NORTHWEST INDIANA

CITY           SKY/WX    TMP DP  RH WIND       PRES   REMARKS
GARY*          PTCLDY    21  10  63 W12       30.52R WCI   9
MICHIGAN CITY* NOT AVBL
RENSSELAER*    NOT AVBL
VALPARAISO     LGT SNOW  22  17  81 W9        30.48S WCI  12
$$

LMZ740>746-170300-
SOUTHERN LAKE MICHIGAN

STATION/POSITION TIME  SKY/WX   TEMP WIND        PRES    VSBY
                                AIR  DIR/SP/G
                 (UTC)          (F)  (DEG/KT/KT) (MB)    (MI)
HARRISON CRIB    0140            21  310/ 18/ 20   N/A
BURNHAM HARBOR   0200            20  290/  9/ 15   N/A
CALUMET HARBOR   0130            20  280/  8/ 14 1032.4R
BURNS HARBOR     0140            24  300/ 21/ 24 1032.2S
MICHIGAN CITY    0140                200/  4/  5   N/A
$$

ABBREVIATIONS USED IN REMARKS
   TC - TEMPERATURE IN CELSIUS
  WCI - WIND CHILL INDEX
   HX - HEAT INDEX
  VSB - VISIBILITY
$$




USA.gov is the U.S. government's official web portal to all federal, state and local government web resources and services.